Location: Unspecified
(0.0000°N, 0.0000°E)
Time: 08:40:35
(UTC+02:00)

Orbus 21S - Visible Passes

Search period start: 27 April 2018 00:00
Search period end: 07 May 2018 00:00
Orbit: 281 x 32984 km, 24.4° (Epoch: 26 April)

Date Brightness Start Highest point End Pass type
(mag) Time Alt. Az. Time Alt. Az. Time Alt. Az.
28 Apr 5.8 05:55:30 27° SSW 06:02:50 50° SE 14:42:15 10° ENE visible
30 Apr 5.9 06:10:35 25° SSW 06:19:15 58° SE 15:01:03 10° ENE visible
02 May 5.9 06:25:34 22° SW 06:35:49 66° SE 15:19:12 10° ENE visible
03 May 5.4 11:46:05 10° W 20:31:05 82° SSW 20:38:21 11° ESE visible
04 May 6.1 06:40:29 19° SW 06:52:37 73° SE 15:36:47 10° E visible
05 May 5.2 12:05:13 10° W 20:47:04 71° SSW 20:53:07 15° SE visible
06 May 6.2 06:55:19 15° SW 07:09:46 81° SSE 15:53:54 10° E visible
